Location: Central Falls
(41.8900°N, 71.3929°W)
Time: 07:42:40
(UTC+00:00)

Tiros 1 despin weight - Pass Details

Date: 09 December 2023
Orbit: 581 x 624 km, 48.2° (Epoch: 29 February)

Event Time Altitude Azimuth Distance (km) Brightness Sun altitude
Rises 02:17:01 0° 297° (WNW) 2,798 - -55.1°
Reaches altitude 10° 02:19:18 10° 299° (WNW) 1,897 - -55.4°
Maximum altitude 02:23:38 76° 25° (NNE) 603 - -56.2°
Drops below altitude 10° 02:27:59 10° 112° (ESE) 1,899 - -56.9°
Exits shadow 02:50:18 -45° 118° (ESE) 9,865 ? -60.6°
Enters shadow 03:51:40 -18° 301° (WNW) 5,367 ? -68.6°
Sets 04:10:43 0° 154° (SSE) 2,806 - -70.1°
